Home   Weather   Rothesay   Past weeks

Flag for Canada Past Weather in Rothesay, New Brunswick, Canada — Yesterday and Last 2 Weeks

Now
41 °F

Clear.


Feels Like: 36 °F
Forecast: 40 / 60 °F
Wind: 8 mph from Northwest

Location: Saint John

Current Time: Sep 26, 2016 at 5:48:41 AM

Latest Report: Sep 26, 2016 at 5:00 AM


Visibility: 15 mi

Pressure: 30.03 "Hg

Humidity: 87%

Dew Point: 37 °F

Location of RothesayLocation

Past Weather in Rothesay — Graph

°F

Rothesay Temperature Yesterday

Maximum temperature yesterday: 55 °F (at 4:00 PM)
Minimum temperature yesterday: 39 °F (at 6:00 AM)
Average temperature yesterday: 46 °F

High & Low Weather Summary for the Past Weeks

 TemperatureHumidityPressure
High77 °F (Sep 21, 3:00 PM)100% (Sep 11, 7:00 AM)30.34 "Hg (Sep 11, 7:00 AM)
Low36 °F (Sep 16, 5:00 AM)32% (Sep 21, 3:00 PM)29.75 "Hg (Sep 11, 5:00 PM)
Average57 °F86%30.06 "Hg
* Reported Sep 11 4:00 AM — Sep 26 4:00 AM, Rothesay, Weather by CustomWeather, © 2016

Note: Actual official high and low records may vary slightly from our data, if they occured in-between our weather recording intervals... More about our weather records

Advertising

Rothesay Weather History for the Previous 24 Hours

Scroll right to see more
 ConditionsComfort  
Time TempWeatherWind HumidityBarometerVisibility
4:00 AM
Mon, Sep 26
41 °FClear.9 mph87%30.03 "Hg15 mi
3:00 AM43 °FClear.8 mph81%30.03 "Hg15 mi
2:00 AM43 °FClear.7 mph81%30.02 "Hg15 mi
1:00 AM43 °FClear.5 mph81%30.03 "Hg15 mi
12:00 AM43 °FClear.6 mph81%30.03 "Hg15 mi
11:00 PM
Sun, Sep 25
45 °FPassing clouds.10 mph76%30.02 "Hg15 mi
10:00 PM46 °FPassing clouds.12 mph76%30.01 "Hg15 mi
9:00 PM46 °FPassing clouds.9 mph82%30.00 "Hg15 mi
8:00 PM46 °FPassing clouds.8 mph76%29.98 "Hg15 mi
7:00 PM48 °FScattered clouds.7 mph76%29.95 "Hg15 mi
6:00 PM52 °FBroken clouds.16 mph62%29.93 "Hg15 mi
5:00 PM50 °FSprinkles. Partly sunny.18 mph71%29.92 "Hg15 mi
4:55 PM54 °FPartly sunny.14 mph54%29.91 "Hg15 mi
4:00 PM55 °FPartly sunny.20 mph51%29.90 "Hg15 mi
3:00 PM48 °FSprinkles. Partly sunny.10 mph76%29.92 "Hg15 mi
2:54 PM52 °FSprinkles. Partly sunny.21 mph62%29.92 "Hg15 mi
2:00 PM52 °FScattered showers. Partly sunny.14 mph62%29.91 "Hg15 mi
1:00 PM52 °FPartly sunny.10 mph58%29.92 "Hg15 mi
12:00 PM52 °FPartly sunny.13 mph58%29.92 "Hg15 mi
11:00 AM48 °FPartly sunny.13 mph66%29.92 "Hg15 mi
10:00 AM46 °FPartly sunny.12 mph71%29.92 "Hg15 mi
9:00 AM43 °FScattered clouds.15 mph81%29.92 "Hg15 mi
8:00 AM41 °FPassing clouds.12 mph87%29.91 "Hg15 mi
7:00 AM39 °FPassing clouds.9 mph87%29.91 "Hg15 mi
6:00 AM39 °FPassing clouds.8 mph87%29.90 "Hg15 mi
5:00 AM41 °FPassing clouds.9 mph81%29.90 "Hg15 mi
Weather by CustomWeather, © 2016

See weather overviewHow to use our weather pages